Flag for Germany Weather past 2 weeks in Kornwestheim, Baden-Württemberg, Germany

Now
48 °F

Passing clouds.


Feels Like: 46 °F
Forecast: 31 / 50 °F
Wind: 6 mph from Southeast

Location: Stuttgart-Echterdingen

Current Time: Mar 6, 2015 at 3:39:04 PM

Latest Report: Mar 6, 2015 at 3:20 PM


Visibility: N/A

Pressure: 30.57 "Hg

Humidity: 46%

Dew point: 28 °F

Location of KornwestheimLocation

Historic Weather in Kornwestheim — Graph

°F

Kornwestheim temperature yesterday

Maximum temperature yesterday: 43 °F (at 1:50 PM)
Minimum temperature yesterday: 34 °F (at 12:20 AM)
Average temperature yesterday: 38 °F

Past Weeks' High & Low Weather Summary

 TemperatureHumidityPressure
High55 °F (Feb 20, 2:20 PM)100% (Feb 20, 2:20 AM)30.63 "Hg (Feb 20, 2:20 AM)
Low23 °F (Feb 20, 4:20 AM)34% (Feb 26, 3:20 PM)29.50 "Hg (Feb 23, 3:20 PM)
Average38 °F77%30.00 "Hg
* Reported Feb 19 2:20 PM — Mar 6 2:20 PM, Kornwestheim, Weather by CustomWeather, © 2015

Note: Actual official high and low records may vary slightly from our data, if they occured in-between our weather recording intervals... More about our weather records

Advertising

Kornwestheim weather history for previous 24 hours

 ConditionsComfort  
Time TempWeatherWind HumidityBarometerVisibility
2:20 PM
Fri, Mar 6
48 °FPassing clouds.3 mph46%30.57 "HgN/A
1:50 PM46 °FPassing clouds.2 mph50%30.60 "HgN/A
1:20 PM46 °FPassing clouds.2 mph50%30.60 "HgN/A
12:50 PM46 °FPassing clouds.2 mph50%30.60 "HgN/A
12:20 PM46 °FScattered clouds.3 mph53%30.63 "HgN/A
11:50 AM43 °FScattered clouds.3 mph57%30.63 "HgN/A
11:20 AM43 °FPassing clouds.3 mph61%30.63 "HgN/A
10:50 AM41 °FPassing clouds.3 mph70%30.63 "HgN/A
10:20 AM39 °FScattered clouds.2 mph75%30.63 "HgN/A
9:50 AM37 °FPassing clouds.5 mph75%30.63 "HgN/A
9:20 AM36 °FSunny.2 mph81%30.63 "Hg10 mi
8:50 AM34 °FSunny.1 mph87%30.63 "Hg10 mi
8:20 AM32 °FSunny.1 mph93%30.63 "Hg10 mi
7:50 AM32 °FSunny.1 mph87%30.63 "Hg10 mi
7:20 AM30 °FSunny.2 mph93%30.63 "Hg10 mi
6:50 AM30 °FClear.1 mph93%30.63 "Hg10 mi
6:20 AM30 °FClear.3 mph93%30.60 "Hg10 mi
5:50 AM30 °FClear.1 mph93%30.60 "Hg10 mi
5:20 AM30 °FPassing clouds.3 mph86%30.60 "HgN/A
4:50 AM30 °FClear.3 mph86%30.60 "Hg10 mi
4:20 AM28 °FClear.1 mph93%30.60 "Hg10 mi
3:50 AM30 °FClear.2 mph86%30.60 "Hg10 mi
3:20 AM30 °FClear.5 mph86%30.60 "Hg10 mi
2:50 AM32 °FClear.3 mph80%30.60 "Hg10 mi
2:20 AM32 °FClear.6 mph80%30.60 "Hg10 mi
1:50 AM32 °FClear.7 mph87%30.60 "Hg10 mi
1:20 AM32 °FClear.5 mph80%30.60 "Hg10 mi
12:50 AM32 °FClear.3 mph80%30.60 "Hg10 mi
12:20 AM32 °FClear.5 mph87%30.60 "Hg10 mi
11:50 PM
Thu, Mar 5
36 °FClear.3 mph75%30.60 "Hg10 mi
11:20 PM36 °FClear.3 mph75%30.60 "Hg10 mi
10:50 PM37 °FClear.3 mph70%30.60 "Hg10 mi
10:20 PM37 °FClear.3 mph70%30.60 "Hg10 mi
9:20 PM37 °FClear.6 mph70%30.60 "Hg10 mi
8:50 PM37 °FClear.7 mph70%30.60 "Hg10 mi
8:20 PM39 °FPassing clouds.6 mph65%30.60 "HgN/A
7:50 PM39 °FPassing clouds.7 mph65%30.60 "HgN/A
7:20 PM39 °FPassing clouds.7 mph65%30.60 "HgN/A
6:50 PM39 °FPassing clouds.8 mph65%30.57 "HgN/A
6:20 PM41 °FPassing clouds.10 mph61%30.57 "HgN/A
5:50 PM41 °FPartly sunny.13 mph61%30.57 "HgN/A
5:20 PM41 °FPartly sunny.12 mph57%30.57 "HgN/A
4:50 PM43 °FPartly sunny.10 mph53%30.57 "HgN/A
4:20 PM43 °FBroken clouds.10 mph53%30.54 "HgN/A
3:50 PM43 °FBroken clouds.8 mph49%30.54 "HgN/A
3:20 PM43 °FBroken clouds.8 mph49%30.54 "HgN/A
Weather by CustomWeather, © 2015

See weather overviewHow to use our weather pages